| time (UTC) | temp F | wind direction | speed MPH | gust MPH | rain 1hr in | rain 24hr in | rain mn in | humidity % | barometer mb |
| 20260902024506 | 59 | 236 | 2.0 | 7.0 | 0.00 | 0.00 | 0.00 | 85 | 1020.0 |
| 20260902024044 | 59 | 234 | 2.0 | 5.0 | 0.00 | 0.00 | 0.00 | 85 | 1019.9 |
| 20260902023526 | 59 | 217 | 2.0 | 6.0 | 0.00 | 0.00 | 0.00 | 84 | 1019.9 |
| 20260902023036 | 59 | 232 | 1.0 | 6.0 | 0.00 | 0.00 | 0.00 | 84 | 1019.9 |
| 20260902022545 | 59 | 267 | 2.0 | 7.0 | 0.00 | 0.00 | 0.00 | 84 | 1019.9 |
| 20260902022049 | 60 | 249 | 4.0 | 7.0 | 0.00 | 0.00 | 0.00 | 84 | 1019.9 |
| 20260902021531 | 60 | 255 | 3.0 | 8.0 | 0.00 | 0.00 | 0.00 | 84 | 1019.8 |
| 20260902021012 | 60 | 266 | 4.0 | 8.0 | 0.00 | 0.00 | 0.00 | 83 | 1019.8 |
| 20260902020520 | 60 | 263 | 3.0 | 9.0 | 0.00 | 0.00 | 0.00 | 83 | 1019.9 |
| 20260902020030 | 60 | 277 | 3.0 | 8.0 | 0.00 | 0.00 | 0.00 | 83 | 1019.9 |
| 20260902015536 | 60 | 267 | 4.0 | 8.0 | 0.00 | 0.00 | 0.00 | 83 | 1019.8 |
| 20260902015044 | 60 | 267 | 4.0 | 8.0 | 0.00 | 0.00 | 0.00 | 83 | 1019.8 |
| 20260902014530 | 60 | 252 | 3.0 | 8.0 | 0.00 | 0.00 | 0.00 | 83 | 1019.8 |
| 20260902014039 | 60 | 265 | 3.0 | 8.0 | 0.00 | 0.00 | 0.00 | 83 | 1019.7 |
| 20260902013546 | 60 | 285 | 3.0 | 8.0 | 0.00 | 0.00 | 0.00 | 83 | 1019.7 |
| 20260902013051 | 60 | 277 | 3.0 | 8.0 | 0.00 | 0.00 | 0.00 | 82 | 1019.7 |
| 20260902012535 | 60 | 233 | 2.0 | 8.0 | 0.00 | 0.00 | 0.00 | 82 | 1019.6 |
| 20260902012016 | 60 | 254 | 4.0 | 7.0 | 0.00 | 0.00 | 0.00 | 82 | 1019.7 |
| 20260902011522 | 60 | 234 | 3.0 | 7.0 | 0.00 | 0.00 | 0.00 | 82 | 1019.7 |
| 20260902011031 | 60 | 231 | 3.0 | 7.0 | 0.00 | 0.00 | 0.00 | 82 | 1019.7 |
| 20260902010539 | 60 | 284 | 2.0 | 5.0 | 0.00 | 0.00 | 0.00 | 82 | 1019.7 |
| 20260902010026 | 60 | 227 | 2.0 | 6.0 | 0.00 | 0.00 | 0.00 | 82 | 1019.8 |
| 20260902005530 | 60 | 238 | 3.0 | 8.0 | 0.00 | 0.00 | 0.00 | 82 | 1019.8 |
| 20260902005038 | 61 | 277 | 3.0 | 8.0 | 0.00 | 0.00 | 0.00 | 82 | 1019.8 |
| 20260902004525 | 61 | 228 | 3.0 | 10.0 | 0.00 | 0.00 | 0.00 | 82 | 1019.8 |
| 20260902004054 | 61 | 237 | 4.0 | 10.0 | 0.00 | 0.00 | 0.00 | 82 | 1019.9 |
| 20260902003556 | 61 | 223 | 3.0 | 8.0 | 0.00 | 0.00 | 0.00 | 82 | 1019.8 |
| 20260902003040 | 61 | 269 | 4.0 | 8.0 | 0.00 | 0.00 | 0.00 | 82 | 1019.8 |
| 20260902002551 | 61 | 240 | 4.0 | 9.0 | 0.00 | 0.00 | 0.00 | 82 | 1019.8 |
| 20260902002054 | 61 | 246 | 4.0 | 10.0 | 0.00 | 0.00 | 0.00 | 82 | 1019.8 |
| 20260902001536 | 61 | 257 | 5.0 | 11.0 | 0.00 | 0.00 | 0.00 | 82 | 1019.9 |
| 20260902001018 | 60 | 282 | 6.0 | 11.0 | 0.00 | 0.00 | 0.00 | 82 | 1019.9 |
| 20260902000529 | 60 | 262 | 3.0 | 12.0 | 0.00 | 0.00 | 0.00 | 83 | 1020.0 |
| 20260902000040 | 60 | 254 | 4.0 | 12.0 | 0.00 | 0.00 | 0.00 | 83 | 1019.9 |
| 20260901235519 | 60 | 220 | 6.0 | 14.0 | 0.00 | 0.00 | 0.00 | 83 | 1019.9 |
| 20260901235100 | 60 | 262 | 7.0 | 12.0 | 0.00 | 0.00 | 0.00 | 83 | 1019.8 |
| 20260901234510 | 60 | 256 | 6.0 | 11.0 | 0.00 | 0.00 | 0.00 | 83 | 1019.8 |
| 20260901234018 | 60 | 234 | 6.0 | 11.0 | 0.00 | 0.00 | 0.00 | 83 | 1019.8 |
| 20260901233530 | 60 | 285 | 4.0 | 9.0 | 0.00 | 0.00 | 0.00 | 83 | 1019.8 |
| 20260901233034 | 60 | 240 | 3.0 | 7.0 | 0.00 | 0.00 | 0.00 | 84 | 1019.7 |
| 20260901232516 | 60 | 252 | 0.0 | 6.0 | 0.00 | 0.00 | 0.00 | 84 | 1019.6 |
| 20260901232028 | 60 | 269 | 1.0 | 4.0 | 0.00 | 0.00 | 0.00 | 84 | 1019.5 |
| 20260901231541 | 60 | 273 | 1.0 | 5.0 | 0.00 | 0.00 | 0.00 | 84 | 1019.6 |
| 20260901231049 | 60 | 222 | 2.0 | 7.0 | 0.00 | 0.00 | 0.00 | 83 | 1019.5 |
| 20260901230553 | 60 | 237 | 3.0 | 7.0 | 0.00 | 0.00 | 0.00 | 83 | 1019.6 |
| 20260901230037 | 60 | 228 | 3.0 | 7.0 | 0.00 | 0.00 | 0.00 | 83 | 1019.6 |
| 20260901225546 | 60 | 229 | 2.0 | 7.0 | 0.00 | 0.00 | 0.00 | 83 | 1019.5 |
| 20260901225051 | 60 | 219 | 3.0 | 7.0 | 0.00 | 0.00 | 0.00 | 82 | 1019.6 |
| 20260901224601 | 60 | 265 | 1.0 | 4.0 | 0.00 | 0.00 | 0.00 | 82 | 1019.5 |
| 20260901224502 | 60 | 245 | 2.0 | 4.0 | 0.00 | 0.00 | 0.00 | 82 | 1019.5 |
| 20260901224013 | 61 | 229 | 1.0 | 4.0 | 0.00 | 0.00 | 0.00 | 82 | 1019.6 |
| 20260901223552 | 61 | 232 | 1.0 | 8.0 | 0.00 | 0.00 | 0.00 | 81 | 1019.5 |
| 20260901223058 | 61 | 238 | 3.0 | 8.0 | 0.00 | 0.00 | 0.00 | 81 | 1019.5 |
| 20260901222508 | 61 | 239 | 2.0 | 8.0 | 0.00 | 0.00 | 0.00 | 81 | 1019.5 |
| 20260901222013 | 61 | 211 | 3.0 | 9.0 | 0.00 | 0.00 | 0.00 | 80 | 1019.5 |
| 20260901221609 | 62 | 221 | 3.0 | 9.0 | 0.00 | 0.00 | 0.00 | 80 | 1019.6 |
| 20260901221031 | 62 | 240 | 2.0 | 7.0 | 0.00 | 0.00 | 0.00 | 80 | 1019.6 |
| 20260901220544 | 62 | 231 | 3.0 | 7.0 | 0.00 | 0.00 | 0.00 | 79 | 1019.6 |
| 20260901220101 | 62 | 245 | 4.0 | 7.0 | 0.00 | 0.00 | 0.00 | 79 | 1019.5 |
| 20260901215556 | 62 | 276 | 3.0 | 8.0 | 0.00 | 0.00 | 0.00 | 79 | 1019.6 |
| 20260901215008 | 62 | 252 | 3.0 | 7.0 | 0.00 | 0.00 | 0.00 | 79 | 1019.6 |
| 20260901214543 | 62 | 245 | 2.0 | 7.0 | 0.00 | 0.00 | 0.00 | 79 | 1019.5 |
| 20260901214025 | 62 | 260 | 3.0 | 8.0 | 0.00 | 0.00 | 0.00 | 79 | 1019.6 |
| 20260901213533 | 62 | 247 | 3.0 | 8.0 | 0.00 | 0.00 | 0.00 | 79 | 1019.5 |
| 20260901213100 | 62 | 212 | 3.0 | 8.0 | 0.00 | 0.00 | 0.00 | 79 | 1019.6 |
| 20260901212547 | 62 | 278 | 2.0 | 5.0 | 0.00 | 0.00 | 0.00 | 79 | 1019.6 |
| 20260901212030 | 62 | 275 | 0.0 | 5.0 | 0.00 | 0.00 | 0.00 | 79 | 1019.6 |
| 20260901211514 | 62 | 250 | 2.0 | 9.0 | 0.00 | 0.00 | 0.00 | 79 | 1019.6 |
| 20260901211020 | 62 | 236 | 4.0 | 9.0 | 0.00 | 0.00 | 0.00 | 79 | 1019.5 |
| 20260901210530 | 61 | 249 | 3.0 | 9.0 | 0.00 | 0.00 | 0.00 | 79 | 1019.5 |
| 20260901210037 | 61 | 265 | 4.0 | 9.0 | 0.00 | 0.00 | 0.00 | 80 | 1019.5 |
| 20260901205518 | 61 | 242 | 3.0 | 8.0 | 0.00 | 0.00 | 0.00 | 81 | 1019.5 |
| 20260901205057 | 60 | 235 | 2.0 | 5.0 | 0.00 | 0.00 | 0.00 | 81 | 1019.4 |
| 20260901204516 | 60 | 248 | 0.0 | 3.0 | 0.00 | 0.00 | 0.00 | 81 | 1019.4 |
| 20260901204019 | 60 | 219 | 0.0 | 4.0 | 0.00 | 0.00 | 0.00 | 81 | 1019.4 |
| 20260901203528 | 60 | 242 | 1.0 | 4.0 | 0.00 | 0.00 | 0.00 | 81 | 1019.4 |
| 20260901203035 | 60 | 249 | 0.0 | 0.0 | 0.00 | 0.00 | 0.00 | 81 | 1019.2 |
| 20260901202520 | 60 | 249 | 0.0 | 0.0 | 0.00 | 0.00 | 0.00 | 80 | 1019.2 |
| 20260901202027 | 60 | 249 | 0.0 | 0.0 | 0.00 | 0.00 | 0.00 | 80 | 1019.1 |
| 20260901201545 | 60 | 251 | 0.0 | 3.0 | 0.00 | 0.00 | 0.00 | 80 | 1019.2 |
| 20260901201047 | 60 | 238 | 0.0 | 3.0 | 0.00 | 0.00 | 0.00 | 79 | 1019.2 |
| 20260901200530 | 61 | 248 | 0.0 | 1.0 | 0.00 | 0.00 | 0.00 | 79 | 1019.1 |
| 20260901195552 | 61 | 217 | 0.0 | 0.0 | 0.00 | 0.00 | 0.00 | 79 | 1019.1 |
| 20260901195100 | 61 | 217 | 0.0 | 0.0 | 0.00 | 0.00 | 0.00 | 78 | 1019.1 |
| 20260901195007 | 61 | 217 | 0.0 | 0.0 | 0.00 | 0.00 | 0.00 | 78 | 1019.1 |
| 20260901194558 | 61 | 236 | 0.0 | 0.0 | 0.00 | 0.00 | 0.00 | 78 | 1019.2 |
| 20260901194054 | 61 | 236 | 0.0 | 0.0 | 0.00 | 0.00 | 0.00 | 78 | 1019.2 |
| 20260901193503 | 61 | 179 | 0.0 | 0.0 | 0.00 | 0.00 | 0.00 | 78 | 1019.2 |
| 20260901193013 | 61 | 172 | 0.0 | 0.0 | 0.00 | 0.00 | 0.00 | 77 | 1019.3 |
| 20260901192559 | 61 | 222 | 0.0 | 0.0 | 0.00 | 0.00 | 0.00 | 77 | 1019.2 |
| 20260901192009 | 61 | 246 | 0.0 | 0.0 | 0.00 | 0.00 | 0.00 | 77 | 1019.2 |
| 20260901191526 | 61 | 246 | 0.0 | 0.0 | 0.00 | 0.00 | 0.00 | 76 | 1019.4 |
| 20260901191025 | 62 | 164 | 0.0 | 0.0 | 0.00 | 0.00 | 0.00 | 76 | 1019.2 |
| 20260901190507 | 62 | 187 | 0.0 | 0.0 | 0.00 | 0.00 | 0.00 | 76 | 1019.3 |
| 20260901190022 | 62 | 187 | 0.0 | 3.0 | 0.00 | 0.00 | 0.00 | 76 | 1019.2 |
| 20260901185528 | 62 | 226 | 0.0 | 3.0 | 0.00 | 0.00 | 0.00 | 76 | 1019.1 |
| 20260901185033 | 62 | 215 | 0.0 | 3.0 | 0.00 | 0.00 | 0.00 | 76 | 1019.1 |
| 20260901184515 | 62 | 213 | 0.0 | 4.0 | 0.00 | 0.00 | 0.00 | 76 | 1019.1 |
| 20260901184024 | 62 | 225 | 0.0 | 4.0 | 0.00 | 0.00 | 0.00 | 76 | 1019.1 |
| 20260901183529 | 62 | 263 | 0.0 | 0.0 | 0.00 | 0.00 | 0.00 | 77 | 1019.1 |
| 20260901183047 | 61 | 225 | 0.0 | 0.0 | 0.00 | 0.00 | 0.00 | 76 | 1019.0 |
| 20260901182521 | 61 | 193 | 0.0 | 0.0 | 0.00 | 0.00 | 0.00 | 76 | 1018.9 |
| 20260901182030 | 61 | 193 | 0.0 | 0.0 | 0.00 | 0.00 | 0.00 | 76 | 1018.9 |
| 20260901181519 | 61 | 193 | 0.0 | 0.0 | 0.00 | 0.00 | 0.00 | 76 | 1018.8 |
| 20260901181053 | 61 | 193 | 0.0 | 0.0 | 0.00 | 0.00 | 0.00 | 76 | 1018.8 |
| 20260901180503 | 62 | 193 | 0.0 | 0.0 | 0.00 | 0.00 | 0.00 | 75 | 1018.8 |
| 20260901180011 | 62 | 193 | 0.0 | 0.0 | 0.00 | 0.00 | 0.00 | 75 | 1018.8 |
| 20260901175557 | 62 | 193 | 0.0 | 0.0 | 0.00 | 0.00 | 0.00 | 75 | 1018.8 |
| 20260901175005 | 62 | 193 | 0.0 | 0.0 | 0.00 | 0.00 | 0.00 | 74 | 1018.8 |
| 20260901174514 | 62 | 194 | 0.0 | 0.0 | 0.00 | 0.00 | 0.00 | 74 | 1018.8 |
| 20260901174021 | 62 | 194 | 0.0 | 0.0 | 0.00 | 0.00 | 0.00 | 74 | 1018.8 |
| 20260901173505 | 63 | 261 | 0.0 | 0.0 | 0.00 | 0.00 | 0.00 | 73 | 1018.7 |
| 20260901173013 | 63 | 261 | 0.0 | 3.0 | 0.00 | 0.00 | 0.00 | 73 | 1018.7 |
| 20260901172519 | 63 | 261 | 0.0 | 3.0 | 0.00 | 0.00 | 0.00 | 73 | 1018.7 |
| 20260901172029 | 63 | 260 | 0.0 | 4.0 | 0.00 | 0.00 | 0.00 | 72 | 1018.8 |
| 20260901171510 | 63 | 288 | 1.0 | 4.0 | 0.00 | 0.00 | 0.00 | 72 | 1018.7 |
| 20260901171051 | 63 | 285 | 0.0 | 6.0 | 0.00 | 0.00 | 0.00 | 72 | 1018.8 |
| 20260901170559 | 63 | 29 | 1.0 | 9.0 | 0.00 | 0.00 | 0.00 | 71 | 1018.7 |
| 20260901170501 | 63 | 341 | 2.0 | 9.0 | 0.00 | 0.00 | 0.00 | 71 | 1018.7 |
| 20260901170009 | 64 | 327 | 4.0 | 13.0 | 0.00 | 0.00 | 0.00 | 70 | 1018.8 |
| 20260901165515 | 65 | 343 | 4.0 | 14.0 | 0.00 | 0.00 | 0.00 | 69 | 1018.9 |
| 20260901165023 | 67 | 299 | 6.0 | 16.0 | 0.00 | 0.00 | 0.00 | 68 | 1018.9 |
| 20260901164617 | 69 | 309 | 5.0 | 20.0 | 0.00 | 0.00 | 0.00 | 66 | 1018.9 |
| 20260901164506 | 69 | 325 | 5.0 | 20.0 | 0.00 | 0.00 | 0.00 | 65 | 1018.9 |
| 20260901164039 | 70 | 269 | 8.0 | 16.0 | 0.00 | 0.00 | 0.00 | 60 | 1018.7 |
| 20260901163514 | 70 | 288 | 6.0 | 16.0 | 0.00 | 0.00 | 0.00 | 61 | 1018.4 |
| 20260901163021 | 71 | 239 | 8.0 | 13.0 | 0.00 | 0.00 | 0.00 | 62 | 1018.4 |
| 20260901162529 | 71 | 233 | 6.0 | 14.0 | 0.00 | 0.00 | 0.00 | 61 | 1018.3 |
| 20260901162011 | 71 | 234 | 8.0 | 14.0 | 0.00 | 0.00 | 0.00 | 61 | 1018.3 |
| 20260901161553 | 71 | 250 | 7.0 | 12.0 | 0.00 | 0.00 | 0.00 | 61 | 1018.3 |
| 20260901161059 | 72 | 228 | 6.0 | 10.0 | 0.00 | 0.00 | 0.00 | 61 | 1018.3 |
| 20260901161002 | 72 | 236 | 3.0 | 9.0 | 0.00 | 0.00 | 0.00 | 61 | 1018.3 |
| 20260901160508 | 71 | 233 | 3.0 | 10.0 | 0.00 | 0.00 | 0.00 | 61 | 1018.2 |
| 20260901160015 | 71 | 255 | 6.0 | 10.0 | 0.00 | 0.00 | 0.00 | 60 | 1018.1 |
| 20260901155557 | 71 | 244 | 5.0 | 11.0 | 0.00 | 0.00 | 0.00 | 61 | 1018.1 |
| 20260901155007 | 71 | 274 | 6.0 | 11.0 | 0.00 | 0.00 | 0.00 | 60 | 1018.1 |
| 20260901154514 | 71 | 275 | 6.0 | 11.0 | 0.00 | 0.00 | 0.00 | 60 | 1018.2 |
| 20260901154024 | 72 | 232 | 7.0 | 12.0 | 0.00 | 0.00 | 0.00 | 59 | 1018.0 |
| 20260901153532 | 72 | 213 | 6.0 | 11.0 | 0.00 | 0.00 | 0.00 | 59 | 1018.0 |
| 20260901153041 | 72 | 204 | 5.0 | 13.0 | 0.00 | 0.00 | 0.00 | 59 | 1018.1 |
| 20260901152525 | 72 | 291 | 5.0 | 14.0 | 0.00 | 0.00 | 0.00 | 59 | 1018.1 |
| 20260901152039 | 72 | 333 | 7.0 | 17.0 | 0.00 | 0.00 | 0.00 | 59 | 1018.1 |
| 20260901151545 | 72 | 242 | 11.0 | 17.0 | 0.00 | 0.00 | 0.00 | 58 | 1018.1 |
| 20260901151049 | 72 | 224 | 6.0 | 17.0 | 0.00 | 0.00 | 0.00 | 60 | 1018.1 |
| 20260901150553 | 72 | 229 | 6.0 | 17.0 | 0.00 | 0.00 | 0.00 | 59 | 1018.2 |
| 20260901150047 | 72 | 249 | 6.0 | 11.0 | 0.00 | 0.00 | 0.00 | 58 | 1018.2 |
| 20260901145550 | 72 | 294 | 7.0 | 11.0 | 0.00 | 0.00 | 0.00 | 59 | 1018.2 |
| 20260901145050 | 72 | 247 | 6.0 | 13.0 | 0.00 | 0.00 | 0.00 | 59 | 1018.2 |
| 20260901144539 | 72 | 230 | 7.0 | 13.0 | 0.00 | 0.00 | 0.00 | 58 | 1018.3 |
| 20260901144014 | 72 | 260 | 5.0 | 12.0 | 0.00 | 0.00 | 0.00 | 58 | 1018.3 |
| 20260901143521 | 72 | 259 | 6.0 | 19.0 | 0.00 | 0.00 | 0.00 | 58 | 1018.3 |
| 20260901143029 | 72 | 273 | 9.0 | 20.0 | 0.00 | 0.00 | 0.00 | 58 | 1018.3 |
| 20260901142510 | 71 | 238 | 9.0 | 20.0 | 0.00 | 0.00 | 0.00 | 59 | 1018.4 |
| 20260901142052 | 71 | 186 | 9.0 | 19.0 | 0.00 | 0.00 | 0.00 | 59 | 1018.3 |
| 20260901141612 | 71 | 256 | 10.0 | 18.0 | 0.00 | 0.00 | 0.00 | 59 | 1018.4 |
| 20260901141502 | 72 | 258 | 11.0 | 18.0 | 0.00 | 0.00 | 0.00 | 59 | 1018.4 |
| 20260901141005 | 71 | 231 | 8.0 | 19.0 | 0.00 | 0.00 | 0.00 | 59 | 1018.5 |
| 20260901140512 | 72 | 238 | 9.0 | 17.0 | 0.00 | 0.00 | 0.00 | 59 | 1018.5 |
| 20260901140023 | 72 | 244 | 7.0 | 16.0 | 0.00 | 0.00 | 0.00 | 59 | 1018.4 |
| 20260901135600 | 71 | 261 | 7.0 | 16.0 | 0.00 | 0.00 | 0.00 | 59 | 1018.4 |
| 20260901135506 | 71 | 271 | 7.0 | 16.0 | 0.00 | 0.00 | 0.00 | 59 | 1018.4 |
| 20260901135043 | 71 | 247 | 9.0 | 16.0 | 0.00 | 0.00 | 0.00 | 59 | 1018.4 |
| 20260901134551 | 71 | 225 | 6.0 | 16.0 | 0.00 | 0.00 | 0.00 | 59 | 1018.4 |
| 20260901134052 | 71 | 301 | 9.0 | 15.0 | 0.00 | 0.00 | 0.00 | 60 | 1018.6 |
| 20260901133535 | 71 | 280 | 9.0 | 16.0 | 0.00 | 0.00 | 0.00 | 59 | 1018.6 |
| 20260901133017 | 71 | 222 | 7.0 | 16.0 | 0.00 | 0.00 | 0.00 | 59 | 1018.6 |
| 20260901132529 | 71 | 254 | 6.0 | 18.0 | 0.00 | 0.00 | 0.00 | 61 | 1018.7 |
| 20260901132035 | 70 | 278 | 10.0 | 18.0 | 0.00 | 0.00 | 0.00 | 60 | 1018.8 |
| 20260901131546 | 69 | 254 | 7.0 | 15.0 | 0.00 | 0.00 | 0.00 | 63 | 1018.8 |
| 20260901131049 | 69 | 284 | 9.0 | 13.0 | 0.00 | 0.00 | 0.00 | 63 | 1018.7 |
| 20260901130531 | 68 | 263 | 8.0 | 15.0 | 0.00 | 0.00 | 0.00 | 63 | 1018.7 |
| 20260901130012 | 69 | 260 | 7.0 | 15.0 | 0.00 | 0.00 | 0.00 | 62 | 1018.7 |
| 20260901125520 | 69 | 249 | 10.0 | 17.0 | 0.00 | 0.00 | 0.00 | 61 | 1018.7 |
| 20260901125027 | 69 | 269 | 9.0 | 17.0 | 0.00 | 0.00 | 0.00 | 60 | 1018.8 |
| 20260901124533 | 70 | 280 | 9.0 | 21.0 | 0.00 | 0.00 | 0.00 | 59 | 1018.8 |
| 20260901124048 | 70 | 265 | 10.0 | 21.0 | 0.00 | 0.00 | 0.00 | 58 | 1018.7 |
| 20260901123548 | 71 | 269 | 10.0 | 18.0 | 0.00 | 0.00 | 0.00 | 58 | 1018.7 |
| 20260901123033 | 71 | 271 | 9.0 | 18.0 | 0.00 | 0.00 | 0.00 | 59 | 1018.7 |
| 20260901122544 | 70 | 273 | 5.0 | 15.0 | 0.00 | 0.00 | 0.00 | 62 | 1018.7 |
| 20260901122048 | 69 | 242 | 6.0 | 13.0 | 0.00 | 0.00 | 0.00 | 62 | 1018.8 |
| 20260901121604 | 69 | 242 | 7.0 | 13.0 | 0.00 | 0.00 | 0.00 | 62 | 1018.8 |
| 20260901121008 | 69 | 5 | 8.0 | 14.0 | 0.00 | 0.00 | 0.00 | 62 | 1018.9 |
| 20260901120543 | 70 | 272 | 9.0 | 16.0 | 0.00 | 0.00 | 0.00 | 61 | 1019.0 |
| 20260901120023 | 70 | 215 | 9.0 | 17.0 | 0.00 | 0.00 | 0.00 | 60 | 1019.0 |
| 20260901115531 | 71 | 276 | 10.0 | 15.0 | 0.00 | 0.00 | 0.00 | 59 | 1019.0 |
| 20260901115035 | 71 | 266 | 6.0 | 14.0 | 0.00 | 0.00 | 0.00 | 60 | 1018.9 |
| 20260901114543 | 71 | 250 | 8.0 | 17.0 | 0.00 | 0.00 | 0.00 | 60 | 1019.0 |
| 20260901114024 | 70 | 223 | 8.0 | 15.0 | 0.00 | 0.00 | 0.00 | 61 | 1019.0 |
| 20260901113508 | 70 | 257 | 7.0 | 18.0 | 0.00 | 0.00 | 0.00 | 61 | 1018.9 |
| 20260901113017 | 70 | 203 | 9.0 | 18.0 | 0.00 | 0.00 | 0.00 | 62 | 1019.0 |
| 20260901112523 | 69 | 182 | 7.0 | 16.0 | 0.00 | 0.00 | 0.00 | 63 | 1019.1 |
| 20260901112032 | 69 | 240 | 9.0 | 20.0 | 0.00 | 0.00 | 0.00 | 63 | 1019.0 |
| 20260901111517 | 69 | 265 | 13.0 | 20.0 | 0.00 | 0.00 | 0.00 | 62 | 1019.0 |
| 20260901111018 | 69 | 238 | 8.0 | 18.0 | 0.00 | 0.00 | 0.00 | 62 | 1019.0 |
| 20260901110526 | 68 | 261 | 9.0 | 23.0 | 0.00 | 0.00 | 0.00 | 62 | 1019.0 |
| 20260901110033 | 69 | 269 | 12.0 | 23.0 | 0.00 | 0.00 | 0.00 | 61 | 1018.9 |
| 20260901105547 | 69 | 267 | 10.0 | 23.0 | 0.00 | 0.00 | 0.00 | 62 | 1018.8 |
| 20260901105051 | 69 | 277 | 12.0 | 23.0 | 0.00 | 0.00 | 0.00 | 61 | 1018.8 |
| 20260901104537 | 69 | 268 | 10.0 | 20.0 | 0.00 | 0.00 | 0.00 | 63 | 1018.7 |
| 20260901104043 | 68 | 261 | 12.0 | 24.0 | 0.00 | 0.00 | 0.00 | 62 | 1018.8 |
| 20260901103550 | 68 | 290 | 12.0 | 24.0 | 0.00 | 0.00 | 0.00 | 65 | 1018.8 |
| 20260901103059 | 67 | 298 | 10.0 | 21.0 | 0.00 | 0.00 | 0.00 | 65 | 1018.6 |
| 20260901103000 | 67 | 275 | 10.0 | 21.0 | 0.00 | 0.00 | 0.00 | 65 | 1018.6 |
| 20260901102510 | 67 | 265 | 11.0 | 21.0 | 0.00 | 0.00 | 0.00 | 65 | 1018.7 |
| 20260901102044 | 67 | 267 | 7.0 | 18.0 | 0.00 | 0.00 | 0.00 | 65 | 1018.6 |
| 20260901101547 | 68 | 192 | 8.0 | 18.0 | 0.00 | 0.00 | 0.00 | 64 | 1018.5 |
| 20260901101006 | 67 | 254 | 8.0 | 19.0 | 0.00 | 0.00 | 0.00 | 66 | 1018.4 |
| 20260901100512 | 67 | 264 | 10.0 | 19.0 | 0.00 | 0.00 | 0.00 | 67 | 1018.5 |
| 20260901100018 | 67 | 257 | 8.0 | 18.0 | 0.00 | 0.00 | 0.00 | 67 | 1018.5 |
| 20260901095524 | 67 | 317 | 8.0 | 18.0 | 0.00 | 0.00 | 0.00 | 66 | 1018.4 |
| 20260901095034 | 67 | 220 | 11.0 | 21.0 | 0.00 | 0.00 | 0.00 | 68 | 1018.5 |
| 20260901094527 | 66 | 248 | 9.0 | 21.0 | 0.00 | 0.00 | 0.00 | 69 | 1018.5 |
| 20260901094023 | 66 | 277 | 9.0 | 16.0 | 0.00 | 0.00 | 0.00 | 71 | 1018.5 |
| 20260901093531 | 66 | 263 | 6.0 | 16.0 | 0.00 | 0.00 | 0.00 | 72 | 1018.5 |
| 20260901093040 | 65 | 262 | 8.0 | 16.0 | 0.00 | 0.00 | 0.00 | 72 | 1018.6 |
| 20260901092548 | 65 | 288 | 7.0 | 14.0 | 0.00 | 0.00 | 0.00 | 72 | 1018.6 |
| 20260901092051 | 65 | 271 | 9.0 | 16.0 | 0.00 | 0.00 | 0.00 | 73 | 1018.6 |
| 20260901091548 | 65 | 249 | 5.0 | 17.0 | 0.00 | 0.00 | 0.00 | 74 | 1018.5 |
| 20260901091014 | 64 | 270 | 10.0 | 17.0 | 0.00 | 0.00 | 0.00 | 74 | 1018.4 |
| 20260901090520 | 64 | 278 | 7.0 | 16.0 | 0.00 | 0.00 | 0.00 | 74 | 1018.5 |
| 20260901090026 | 65 | 273 | 8.0 | 16.0 | 0.00 | 0.00 | 0.00 | 74 | 1018.3 |
| 20260901085508 | 65 | 248 | 6.0 | 16.0 | 0.00 | 0.00 | 0.00 | 74 | 1018.3 |
| 20260901085048 | 65 | 221 | 7.0 | 17.0 | 0.00 | 0.00 | 0.00 | 75 | 1018.3 |
| 20260901084555 | 64 | 243 | 7.0 | 16.0 | 0.00 | 0.00 | 0.00 | 74 | 1018.2 |
| 20260901084003 | 64 | 227 | 7.0 | 16.0 | 0.00 | 0.00 | 0.00 | 75 | 1018.4 |
| 20260901083540 | 64 | 280 | 7.0 | 18.0 | 0.00 | 0.00 | 0.00 | 76 | 1018.3 |
| 20260901083020 | 64 | 270 | 10.0 | 19.0 | 0.00 | 0.00 | 0.00 | 76 | 1018.2 |
| 20260901082528 | 64 | 263 | 9.0 | 15.0 | 0.00 | 0.00 | 0.00 | 76 | 1018.1 |
| 20260901082045 | 63 | 273 | 6.0 | 20.0 | 0.00 | 0.00 | 0.00 | 77 | 1018.1 |
| 20260901081550 | 63 | 277 | 8.0 | 20.0 | 0.00 | 0.00 | 0.00 | 77 | 1018.1 |
| 20260901081050 | 63 | 255 | 10.0 | 15.0 | 0.00 | 0.00 | 0.00 | 77 | 1018.1 |
| 20260901080554 | 63 | 245 | 7.0 | 16.0 | 0.00 | 0.00 | 0.00 | 78 | 1018.1 |
| 20260901080504 | 63 | 254 | 7.0 | 16.0 | 0.00 | 0.00 | 0.00 | 78 | 1018.1 |
| 20260901080125 | 63 | 243 | 9.0 | 16.0 | 0.00 | 0.00 | 0.00 | 78 | 1018.0 |
| 20260901075518 | 63 | 250 | 8.0 | 17.0 | 0.00 | 0.00 | 0.00 | 78 | 1018.0 |
| 20260901075027 | 63 | 274 | 10.0 | 17.0 | 0.00 | 0.00 | 0.00 | 78 | 1017.9 |
| 20260901074536 | 62 | 234 | 8.0 | 15.0 | 0.00 | 0.00 | 0.00 | 79 | 1017.8 |
| 20260901074042 | 62 | 259 | 7.0 | 13.0 | 0.00 | 0.00 | 0.00 | 79 | 1017.7 |
| 20260901073524 | 62 | 234 | 8.0 | 14.0 | 0.00 | 0.00 | 0.00 | 79 | 1017.7 |
| 20260901073006 | 62 | 266 | 7.0 | 14.0 | 0.00 | 0.00 | 0.00 | 79 | 1017.6 |
| 20260901072514 | 62 | 279 | 8.0 | 14.0 | 0.00 | 0.00 | 0.00 | 79 | 1017.6 |
| 20260901072021 | 62 | 258 | 6.0 | 19.0 | 0.00 | 0.00 | 0.00 | 79 | 1017.6 |
| 20260901071528 | 62 | 223 | 7.0 | 19.0 | 0.00 | 0.00 | 0.00 | 79 | 1017.6 |
| 20260901071010 | 62 | 242 | 10.0 | 18.0 | 0.00 | 0.00 | 0.00 | 79 | 1017.5 |
| 20260901070546 | 62 | 283 | 6.0 | 18.0 | 0.00 | 0.00 | 0.00 | 79 | 1017.5 |
| 20260901070032 | 61 | 238 | 7.0 | 16.0 | 0.00 | 0.00 | 0.00 | 80 | 1017.5 |
| 20260901065558 | 61 | 264 | 8.0 | 20.0 | 0.00 | 0.00 | 0.00 | 80 | 1017.5 |
| 20260901065008 | 61 | 243 | 5.0 | 18.0 | 0.00 | 0.00 | 0.00 | 80 | 1017.3 |
| 20260901064515 | 61 | 230 | 5.0 | 16.0 | 0.00 | 0.00 | 0.00 | 80 | 1017.2 |
| 20260901064023 | 61 | 228 | 9.0 | 16.0 | 0.00 | 0.00 | 0.00 | 80 | 1017.1 |
| 20260901063527 | 61 | 267 | 8.0 | 17.0 | 0.00 | 0.00 | 0.00 | 81 | 1017.2 |
| 20260901063040 | 60 | 281 | 8.0 | 17.0 | 0.00 | 0.00 | 0.00 | 81 | 1017.1 |
| 20260901062534 | 60 | 284 | 5.0 | 21.0 | 0.00 | 0.00 | 0.00 | 81 | 1017.1 |
| 20260901062040 | 60 | 266 | 11.0 | 21.0 | 0.00 | 0.00 | 0.00 | 81 | 1017.0 |
| 20260901061520 | 60 | 271 | 7.0 | 17.0 | 0.00 | 0.00 | 0.00 | 81 | 1017.1 |
| 20260901061058 | 60 | 272 | 9.0 | 17.0 | 0.00 | 0.00 | 0.00 | 81 | 1017.0 |
| 20260901060508 | 60 | 256 | 7.0 | 19.0 | 0.00 | 0.00 | 0.00 | 81 | 1017.0 |
| 20260901060014 | 60 | 257 | 9.0 | 19.0 | 0.00 | 0.00 | 0.00 | 81 | 1017.0 |
| 20260901055520 | 60 | 257 | 10.0 | 20.0 | 0.00 | 0.00 | 0.00 | 81 | 1016.9 |
| 20260901055054 | 60 | 254 | 7.0 | 20.0 | 0.00 | 0.00 | 0.00 | 81 | 1016.8 |
| 20260901054546 | 60 | 268 | 8.0 | 18.0 | 0.00 | 0.00 | 0.00 | 81 | 1016.7 |
| 20260901054046 | 60 | 275 | 10.0 | 19.0 | 0.00 | 0.00 | 0.00 | 81 | 1016.8 |
| 20260901053553 | 60 | 242 | 10.0 | 19.0 | 0.00 | 0.00 | 0.00 | 82 | 1016.6 |
| 20260901053109 | 60 | 271 | 7.0 | 16.0 | 0.00 | 0.00 | 0.00 | 81 | 1016.6 |
| 20260901052503 | 59 | 252 | 8.0 | 16.0 | 0.00 | 0.00 | 0.00 | 82 | 1016.5 |
| 20260901052012 | 59 | 261 | 8.0 | 15.0 | 0.00 | 0.00 | 0.00 | 82 | 1016.2 |
| 20260901051548 | 59 | 282 | 8.0 | 15.0 | 0.00 | 0.00 | 0.00 | 82 | 1016.2 |
| 20260901051031 | 59 | 197 | 8.0 | 17.0 | 0.00 | 0.00 | 0.00 | 83 | 1016.1 |
| 20260901050543 | 59 | 271 | 8.0 | 17.0 | 0.00 | 0.00 | 0.00 | 83 | 1016.1 |
| 20260901050048 | 59 | 275 | 7.0 | 15.0 | 0.00 | 0.00 | 0.00 | 83 | 1016.2 |
| 20260901045556 | 58 | 227 | 7.0 | 13.0 | 0.00 | 0.00 | 0.00 | 84 | 1016.1 |
| 20260901045007 | 58 | 242 | 5.0 | 17.0 | 0.00 | 0.00 | 0.00 | 84 | 1016.2 |
| 20260901044558 | 58 | 257 | 7.0 | 16.0 | 0.00 | 0.00 | 0.00 | 84 | 1016.1 |
| 20260901044024 | 58 | 238 | 9.0 | 16.0 | 0.00 | 0.00 | 0.00 | 85 | 1016.1 |
| 20260901043529 | 58 | 229 | 6.0 | 14.0 | 0.00 | 0.00 | 0.00 | 85 | 1016.0 |
| 20260901043037 | 57 | 265 | 5.0 | 14.0 | 0.00 | 0.00 | 0.00 | 85 | 1015.8 |
| 20260901042546 | 57 | 242 | 5.0 | 13.0 | 0.00 | 0.00 | 0.00 | 85 | 1015.8 |
| 20260901042049 | 57 | 244 | 5.0 | 14.0 | 0.00 | 0.00 | 0.00 | 85 | 1015.8 |
| 20260901041534 | 57 | 226 | 4.0 | 14.0 | 0.00 | 0.00 | 0.00 | 85 | 1015.8 |
| 20260901041012 | 57 | 229 | 5.0 | 13.0 | 0.00 | 0.00 | 0.00 | 85 | 1015.7 |
| 20260901040520 | 57 | 255 | 7.0 | 13.0 | 0.00 | 0.00 | 0.00 | 85 | 1015.7 |
| 20260901040032 | 57 | 213 | 5.0 | 12.0 | 0.00 | 0.00 | 0.00 | 85 | 1015.8 |
| 20260901035534 | 57 | 227 | 4.0 | 14.0 | 0.00 | 0.00 | 0.00 | 85 | 1015.7 |
| 20260901035046 | 57 | 252 | 5.0 | 14.0 | 0.00 | 0.00 | 0.00 | 85 | 1015.7 |
| 20260901034550 | 57 | 241 | 4.0 | 11.0 | 0.00 | 0.00 | 0.00 | 86 | 1015.7 |
| 20260901034035 | 57 | 243 | 3.0 | 11.0 | 0.00 | 0.00 | 0.00 | 86 | 1015.6 |
| 20260901033545 | 57 | 270 | 2.0 | 12.0 | 0.00 | 0.00 | 0.00 | 86 | 1015.5 |
| 20260901033051 | 57 | 262 | 2.0 | 7.0 | 0.00 | 0.00 | 0.00 | 86 | 1015.5 |
| 20260901032600 | 57 | 259 | 1.0 | 10.0 | 0.00 | 0.00 | 0.00 | 85 | 1015.5 |
| 20260901032058 | 57 | 231 | 0.0 | 10.0 | 0.00 | 0.00 | 0.00 | 85 | 1015.4 |
| 20260901031544 | 57 | 234 | 3.0 | 10.0 | 0.00 | 0.00 | 0.00 | 85 | 1015.5 |
| 20260901031049 | 57 | 244 | 4.0 | 10.0 | 0.00 | 0.00 | 0.00 | 85 | 1015.4 |
| 20260901030559 | 57 | 220 | 1.0 | 8.0 | 0.00 | 0.00 | 0.00 | 84 | 1015.5 |
| 20260901030011 | 57 | 238 | 2.0 | 6.0 | 0.00 | 0.00 | 0.00 | 84 | 1015.5 |
| 20260901025547 | 57 | 221 | 1.0 | 8.0 | 0.00 | 0.00 | 0.00 | 84 | 1015.5 |
| 20260901025054 | 57 | 211 | 2.0 | 6.0 | 0.00 | 0.00 | 0.00 | 84 | 1015.5 |